Location: Argonnex
(45.9500°N, 6.1333°E)
Time: 13:55:12
(UTC+00:00)

Cosmos 2266 Rocket - Pass Details

Date: 12 August 2024
Orbit: 933 x 1007 km, 82.9° (Epoch: 14 September)

Event Time Altitude Azimuth Distance (km) Brightness Sun altitude
Rises 02:27:37 0° 340° (NNW) 3,601 7.3 -18.5°
Reaches altitude 10° 02:30:36 10° 326° (NW) 2,654 6.4 -18.1°
Maximum altitude 02:35:08 23° 277° (W) 1,897 5.2 -17.6°
Enters shadow 02:36:25 21° 259° (W) 1,969 5.1 -17.4°
